Location: *
(51.4660°N, 0.3360°W)
Time: 07:32:34
(UTC+00:00)

Cosmos 1455 Rocket - Pass Details

Date: 19 September 2019
Orbit: 605 x 630 km, 82.5° (Epoch: 18 October)

Event Time Altitude Azimuth Distance (km) Brightness Sun altitude
Exits shadow 20:31:36 - 202° (SSW) 2,172 5.7 -22.0°
Reaches altitude 10° 20:32:02 10° 203° (SSW) 1,996 5.6 -22.1°
Maximum altitude 20:36:25 59° 283° (WNW) 728 3.6 -22.6°
Drops below altitude 10° 20:40:51 10° 4° (N) 2,021 6.1 -23.2°
Sets 20:43:08 0° 8° (N) 2,935 6.9 -23.5°
